METLOCID,DATE_TIME,AVG_AIRT3M,STDDEV_AIRT3M,MIN_AIRT3M,MAX_AIRT3M,N_AIRT3M
VAAM,11/1/94,-6.832610619,2.629897404,-11.38,1.73,452
VAAM,12/1/94,-0.871060886,2.676147004,-9.61,5.89,2168
VAAM,1/1/95,-0.893149394,2.177741179,-5.86,5.28,743
VAAM,2/1/95,-5.50828869,4.498133995,-18.86,6.65,672
VAAM,3/1/95,-24.01778226,9.226302243,-39,-4.93,744
VAAM,4/1/95,-31.37205556,8.377048099,-45.06,-7.57,720
VAAM,5/1/95,-31.25219086,9.527288648,-47.32,-8.04,744
VAAM,6/1/95,-27.77215278,12.42828203,-49.81,-3.71,720
VAAM,7/1/95,-28.47551075,9.088355839,-45.15,-7.99,744
VAAM,8/1/95,-28.60008065,10.24216257,-45.73,-6.02,744
VAAM,9/1/95,-30.75891667,12.62019558,-49.69,-8.18,720
VAAM,10/1/95,-18.04572581,5.315328605,-31.42,-6.27,744
VAAM,11/1/95,-2.588726885,4.779590821,-22.21,6.13,1406
VAAM,12/1/95,1.289815188,2.55843902,-5.27,9.94,2976
VAAM,1/1/96,-0.417799462,2.29877441,-6.47,7.44,2972
VAAM,2/1/96,-5.234159483,5.371844361,-18.06,6.78,2784
VAAM,3/1/96,-16.1861996,7.190563333,-32.53,1.8,2976
VAAM,4/1/96,-20.07943403,9.891487893,-36.05,-0.15,2880
VAAM,5/1/96,-35.41577285,7.1530547,-49.19,-9.93,2976
VAAM,6/1/96,-33.03274306,11.21956288,-48.48,-4.93,2880
VAAM,7/1/96,-28.68158602,10.59276783,-46.24,-8.03,2976
VAAM,8/1/96,-25.03940188,12.75837743,-43.72,1.77,2976
VAAM,9/1/96,-32.89354167,8.556075585,-43.49,-11.37,2880
VAAM,10/1/96,-19.32085013,6.748153559,-40.53,-6.16,2976
VAAM,11/1/96,-4.514960056,5.117402811,-21.84,6.79,2879
VAAM,12/1/96,1.257953629,2.355974621,-4.39,7.69,2976
VAAM,1/1/97,-0.223212366,2.661180296,-5.76,7.14,2976
VAAM,2/1/97,-8.414397321,4.339897527,-20.16,0.66,2688
VAAM,3/1/97,-24.03128696,7.304199404,-37.59,-8.17,2976
VAAM,4/1/97,-32.11557639,10.57255801,-47.05,-6.48,2880
VAAM,5/1/97,-28.3171371,13.15416828,-49.97,-4.65,2976
VAAM,6/1/97,-25.01616667,10.50114104,-48.1,-6.17,2880
VAAM,7/1/97,-37.33030242,9.978225388,-52.03,-15.6,2976
VAAM,8/1/97,-36.05768817,12.34931288,-50.28,-9.59,2976
VAAM,9/1/97,-28.39432986,12.43588336,-50.18,0.49,2880
VAAM,10/1/97,-13.63066667,6.705313278,-33.14,-2.42,2730
VAAM,11/1/97,-0.168064118,3.727679062,-7.66,6.9,811
VAAM,12/1/97,-0.916666667,3.295520909,-8.09,7.64,2976
VAAM,1/1/98,-1.235573109,2.501866149,-8.07,4.13,2975
VAAM,2/1/98,-5.388556548,4.023997414,-16.77,4.61,2688
VAAM,3/1/98,-24.50331653,6.885241221,-39.62,-6.94,2976
VAAM,4/1/98,-36.83852778,12.01292272,-53.72,-4.39,2880
VAAM,5/1/98,-30.14710349,11.03214177,-46.75,-2.93,2976
VAAM,6/1/98,-24.29902778,9.166548668,-40.41,-7.01,2880
VAAM,7/1/98,-31.3144254,10.0003122,-47.1,-10.28,2976
VAAM,8/1/98,-34.12278898,10.69737967,-47.48,-4.49,2976
VAAM,9/1/98,-39.17285764,9.424292058,-50.13,-1.17,2880
VAAM,10/1/98,-16.29787634,6.222050373,-33.12,-0.34,2976
VAAM,11/1/98,-7.185333333,5.044421984,-23.42,3.29,2880
VAAM,12/1/98,-0.435551075,2.827468,-9.09,6.89,2976
VAAM,1/1/99,0.707680672,2.674240567,-5.02,7.28,2975
VAAM,2/1/99,-6.590539435,5.140086448,-20.33,3.82,2688
VAAM,3/1/99,-28.85453528,7.556840264,-43.3,-4.88,2948
VAAM,4/1/99,-35.19894444,9.052645542,-47.12,-7.81,2880
VAAM,5/1/99,-38.09143481,10.44279664,-51.9,-6.39,2976
VAAM,6/1/99,-30.05826389,10.84764588,-44.89,-3.6,2880
VAAM,7/1/99,-26.48734543,11.36652946,-43.2,-4.75,2976
VAAM,8/1/99,-37.21395161,11.81462201,-52.64,-9.76,2976
VAAM,9/1/99,-27.01642014,10.57286005,-49.36,-1.02,2880
VAAM,10/1/99,-15.41206317,6.338350917,-34.33,-1.83,2976
VAAM,11/1/99,-3.909899306,4.024578916,-17.15,3.72,2880
VAAM,12/1/99,-0.497953629,1.966463108,-6.15,5.25,2976
VAAM,1/1/00,-0.873991258,2.257050509,-7.72,6.06,2974
VAAM,2/1/00,-7.284134339,3.809076057,-18.24,1.16,2784
VAAM,3/1/00,-21.5097547,8.630691771,-40.98,-2.95,2976
VAAM,4/1/00,-29.00208333,10.99491666,-43.69,0.63,2880
VAAM,5/1/00,-32.93070228,10.8640593,-48.69,-5.81,2976
VAAM,6/1/00,-33.88393403,13.88831181,-49.33,-0.13,2880
VAAM,7/1/00,-25.42306116,10.22804528,-49.83,-3.99,2976
VAAM,8/1/00,-29.81250672,12.67881976,-50.71,-6.53,2976
VAAM,9/1/00,-26.29690972,12.83657618,-46.26,-4.19,2880
VAAM,10/1/00,-20.25210013,6.180086496,-32.49,-3.28,2976
VAAM,11/1/00,-4.256857639,5.213003928,-23.33,4.55,2880
VAAM,12/1/00,-1.406911962,1.929604333,-5.28,4.44,2976
VAAM,1/1/01,-2.199506048,2.966652142,-8.58,5.88,2976
VAAM,2/1/01,-5.527016369,3.765903623,-16.48,4.88,2688
VAAM,3/1/01,-22.90393817,8.12811261,-35.83,-4.24,2976
VAAM,4/1/01,-28.00009818,10.61039027,-45.05,-4.03,2852
VAAM,5/1/01,-26.55557124,11.37441194,-43.97,-5.05,2976
VAAM,6/1/01,-26.41602778,9.677627059,-42.33,-3.43,2880
VAAM,7/1/01,-31.3334711,10.33211721,-46.8,-7.04,2976
VAAM,8/1/01,-41.79449933,7.956574464,-52.1,-15,2976
VAAM,9/1/01,-32.54258333,10.56342534,-47.66,-4.02,2880
VAAM,10/1/01,-18.4944086,8.183848117,-40,-2.46,2976
VAAM,11/1/01,-5.758697464,4.17975312,-20.29,2.03,2879
VAAM,12/1/01,1.415376344,3.305302924,-7.1,8.98,2976
VAAM,1/1/02,1.651108871,3.349694286,-5.34,10.72,2976
VAAM,2/1/02,-5.810089286,4.415625003,-17.45,3.93,2688
VAAM,3/1/02,-17.34429099,6.055347303,-32.25,-5.1,2976
VAAM,4/1/02,-30.19605208,9.789116448,-43.28,-5.36,2880
VAAM,5/1/02,-24.64236559,11.0623766,-42.47,-2.07,2976
VAAM,6/1/02,-34.02071875,9.927153877,-47.15,-7.5,2880
VAAM,7/1/02,-33.00665323,11.28654748,-48.12,-10.33,2976
VAAM,8/1/02,-35.61200605,9.032603342,-49.3,-10.09,2976
VAAM,9/1/02,-29.56090278,10.15054657,-47.68,-7.33,2880
VAAM,10/1/02,-22.53386761,8.070196657,-36.04,-4.03,2976
VAAM,11/1/02,-8.749958333,2.56727511,-15.68,-2.66,2880
VAAM,12/1/02,-1.60750672,3.054138512,-11.09,4.31,2976
VAAM,1/1/03,0.726260081,2.894194193,-7.58,8.02,2976
VAAM,2/1/03,-5.942767857,3.204120696,-14.88,1.73,2688
VAAM,3/1/03,-21.74768817,7.731474276,-37.88,-5.55,2976
VAAM,4/1/03,-32.27446528,8.26085618,-43.06,-1.76,2880
VAAM,5/1/03,-22.67066532,12.05835513,-44.5,1.39,2976
VAAM,6/1/03,-33.76303472,7.680417724,-46.33,-10.17,2880
VAAM,7/1/03,-28.84018817,11.17327636,-45.86,-8.73,2976
VAAM,8/1/03,-34.58222446,9.735525731,-52.06,-10.87,2976
VAAM,9/1/03,-25.36506597,10.87225696,-48.03,-7.15,2880
VAAM,10/1/03,-15.68469086,6.254640488,-34.74,-1.25,2976
VAAM,11/1/03,-5.649409722,3.973785216,-17.91,5.46,2880
VAAM,12/1/03,1.181233613,3.20830979,-5.84,9.88,2975
VAAM,1/1/04,-0.653696237,2.962837428,-7.65,7.08,2976
VAAM,2/1/04,-8.248063937,5.410060493,-23.56,1.32,2784
VAAM,3/1/04,-30.00321573,6.845283505,-40.36,-9.17,2976
VAAM,4/1/04,-30.76655208,8.837076062,-43.88,-8.75,2880
VAAM,5/1/04,-35.31832661,12.09758272,-48.71,-4.48,2976
VAAM,6/1/04,-26.23327431,11.42970388,-45.39,-6.49,2880
VAAM,7/1/04,-39.53578965,10.59980312,-52.74,-10.4,2976
VAAM,8/1/04,-28.98895497,10.86415215,-49.83,-6.16,2976
VAAM,9/1/04,-29.76699653,8.313601855,-41.35,-7.73,2880
VAAM,10/1/04,-19.20982527,8.801876471,-41.01,-3.7,2976
VAAM,11/1/04,-4.644354167,4.701297597,-17.77,6.6,2880
VAAM,12/1/04,0.912910924,2.021455892,-5.54,6.34,2975
VAAM,1/1/05,0.581270161,3.058396559,-8.21,8.53,2976
VAAM,2/1/05,-7.970212054,5.80509587,-22.98,3.77,2688
VAAM,3/1/05,-26.55468414,7.19376958,-37.49,-3.89,2976
VAAM,4/1/05,-32.96195833,7.916895948,-45.53,-10.87,2880
VAAM,5/1/05,-26.06551411,10.03371883,-45.06,-4.43,2976
VAAM,6/1/05,-28.4416875,10.54796989,-46.5,-2.94,2880
VAAM,7/1/05,-34.02829301,11.93214575,-48.22,-0.87,2976
VAAM,8/1/05,-30.76529234,9.555110084,-45.73,-7.21,2976
VAAM,9/1/05,-30.61784722,13.22137962,-48.12,1.96,2880
VAAM,10/1/05,-14.99828629,6.755836803,-31.33,-1.12,2976
VAAM,11/1/05,-6.020534722,3.279558335,-15.72,1.4,2880
VAAM,12/1/05,1.494200269,2.440099454,-6.27,8.29,2976
VAAM,1/1/06,0.016746218,2.521104004,-6.97,7.62,2975
VAAM,2/1/06,-6.4796875,4.904296611,-28.22,3.14,2688
VAAM,3/1/06,-22.46144153,9.507153063,-40.63,-4.76,2976
VAAM,4/1/06,-35.96049653,7.786850531,-47.63,-8.2,2880
VAAM,5/1/06,-35.76773858,12.78721911,-52.12,-4.92,2976
VAAM,6/1/06,-26.76564931,13.30938821,-48.14,-3.34,2880
VAAM,7/1/06,-38.64722782,10.21555911,-50.77,-7.2,2976
VAAM,8/1/06,-25.59780578,10.8893612,-42.44,-4.61,2976
VAAM,9/1/06,-29.02598958,12.39157075,-47.12,-2.22,2880
VAAM,10/1/06,-22.60794355,7.788087158,-41.82,-5.89,2976
VAAM,11/1/06,-6.900881944,6.112358647,-20.94,2.98,2880
VAAM,12/1/06,-1.787735215,2.747415075,-8.79,5.92,2976
VAAM,1/1/07,2.113877688,2.274097923,-4.58,8.56,2976
VAAM,2/1/07,-8.630279018,7.442453948,-34.76,1.96,2688
VAAM,3/1/07,-20.26222782,7.638857324,-35.11,-2.48,2976
VAAM,4/1/07,-29.18104514,9.862890408,-43.67,-6.18,2880
VAAM,5/1/07,-27.3930746,12.57807355,-46.46,-1.5,2976
VAAM,6/1/07,-24.86989583,10.20378916,-44.17,-2.47,2880
VAAM,7/1/07,-27.46441196,10.75538099,-46.78,-5.07,2976
VAAM,8/1/07,-30.11018817,10.9557767,-44.01,0.33,2976
VAAM,9/1/07,-25.83455903,9.366122187,-43.48,-5.31,2880
VAAM,10/1/07,-17.88328629,5.938411588,-32.97,-5.36,2976
VAAM,11/1/07,-6.409715278,5.141870194,-22.63,2.15,2880
VAAM,12/1/07,-0.319627016,3.389431329,-8.44,7.85,2976
VAAM,1/1/08,0.200184812,3.003698102,-7.88,7.58,2976
VAAM,2/1/08,-8.157579023,3.528565341,-17.06,0.4,2784
VAAM,3/1/08,-19.97411962,9.508786866,-37.52,1.21,2976
VAAM,4/1/08,-27.50863889,9.069925108,-40.59,-4.15,2880
VAAM,5/1/08,-32.34622312,9.166602973,-46.08,-4.94,2976
VAAM,6/1/08,-22.33471875,9.396282541,-39.39,-0.73,2880
VAAM,7/1/08,-33.83520497,11.17149633,-48.65,-4.7,2976
VAAM,8/1/08,-36.71825605,10.25270563,-52.38,-10.67,2976
VAAM,9/1/08,-19.36577778,7.768468393,-38.19,-6.93,2880
VAAM,10/1/08,-17.60176747,5.971416929,-32.65,-5.57,2976
VAAM,11/1/08,-7.187923611,4.033685642,-19.5,1.42,2880
VAAM,12/1/08,0.379408204,3.229751368,-8.28,9.78,2974
VAAM,1/1/09,-0.146155914,2.217882723,-5.7,7.15,2976
VAAM,2/1/09,-9.369646577,6.090190486,-23.31,4.38,2688
VAAM,3/1/09,-23.54169019,7.630507958,-35.59,-4.47,2976
VAAM,4/1/09,-23.48782292,9.331873374,-38.62,-7.4,2880
VAAM,5/1/09,-32.14757728,12.3705828,-47.7,-4.01,2976
VAAM,6/1/09,-29.98175347,10.00754247,-49.11,-7.21,2880
VAAM,7/1/09,-27.1056586,11.00199071,-42.76,-3.1,2976
VAAM,8/1/09,-31.1474496,7.907191194,-42.7,-11.93,2976
VAAM,9/1/09,-28.20874653,11.64885131,-49.5,-1.86,2880
VAAM,10/1/09,-19.62979503,6.246773784,-33.63,-3.45,2976
VAAM,11/1/09,-3.736913194,4.931661328,-17.55,5.55,2880
VAAM,12/1/09,0.151471774,2.354989079,-5.58,6.98,2976
VAAM,1/1/10,0.167956989,2.167716932,-6.08,5.67,2976
VAAM,2/1/10,-8.877328869,7.107853517,-27.59,1.42,2688
VAAM,3/1/10,-19.64671035,9.099368191,-38.24,-0.94,2976
VAAM,4/1/10,-29.89838889,8.045066972,-43.01,-7.86,2880
VAAM,5/1/10,-34.52574933,8.865004011,-48.53,-8.89,2976
VAAM,6/1/10,-34.78163194,10.65091062,-47.49,-9.13,2880
VAAM,7/1/10,-33.80703629,11.4503352,-49.73,-8.35,2976
VAAM,8/1/10,-29.52739247,11.05808242,-50.53,-7.12,2976
VAAM,9/1/10,-33.16203472,8.026738848,-47.44,-8.67,2880
VAAM,10/1/10,-16.90191532,6.897051102,-42.41,-1.85,2976
VAAM,11/1/10,-5.420777778,3.258270885,-13.22,3.59,2880
VAAM,12/1/10,1.057227823,3.319577245,-11.05,8.61,2976
VAAM,1/1/11,-0.98890457,3.009633878,-10.4,7.23,2976
VAAM,2/1/11,-6.303143601,3.559229558,-17.28,1.78,2688
VAAM,3/1/11,-21.08659946,6.671891707,-34.02,-3.94,2976
VAAM,4/1/11,-24.35182986,9.801467464,-40.49,-0.65,2880
VAAM,5/1/11,-31.0077789,9.934216386,-44.86,-4.45,2976
VAAM,6/1/11,-26.44892708,13.26521085,-47.61,-5.06,2880
VAAM,7/1/11,-27.42074597,13.80672342,-49.41,-1.77,2976
VAAM,8/1/11,-25.64289987,13.37946546,-46.75,-3.12,2976
VAAM,9/1/11,-24.90401389,9.729502646,-39.7,-4.24,2880
VAAM,10/1/11,-16.39612903,6.283016216,-29.94,-4.4,2976
VAAM,11/1/11,-3.542395833,3.937293608,-19.18,4,2880
VAAM,12/1/11,-1.016397749,2.085549431,-5.3,4.74,1599
VAAM,1/1/12,-0.785467538,2.67866944,-6.65,6.81,2449
VAAM,2/1/12,-5.389594109,4.167364411,-15.74,4.91,2784
VAAM,3/1/12,-18.73359879,5.704341132,-32.89,-5.59,2976
VAAM,4/1/12,-29.49570139,9.891630376,-43.95,-2.66,2880
VAAM,5/1/12,-20.47648522,10.10258096,-41.02,-1.43,2976
VAAM,6/1/12,-29.56867014,9.930417892,-42.97,-4.74,2880
VAAM,7/1/12,-34.10427083,10.99728865,-47.98,-11.36,2976
VAAM,8/1/12,-26.02908266,10.01090282,-46,-7.51,2976
VAAM,9/1/12,-29.73493056,8.884747279,-45.73,-10.5,2880
VAAM,10/1/12,-17.63534274,5.852744585,-36.95,-5.74,2976
VAAM,11/1/12,-6.2645,4.285716022,-19.47,2.45,2880
VAAM,12/1/12,0.989448925,2.834684652,-5.34,9.25,2976
VAAM,1/1/13,0.233534946,2.283005686,-6.7,6.28,2976
VAAM,2/1/13,-6.776045387,3.287669482,-15.37,0.2,2688
VAAM,3/1/13,-18.83235215,7.432079351,-37.51,-1.7,2976
VAAM,4/1/13,-36.84671181,8.946111463,-48.4,-8.38,2880
VAAM,5/1/13,-26.80556888,10.05025241,-44.45,-5.1,2918
VAAM,6/1/13,-31.57210764,9.524137291,-51.59,-6.18,2880
VAAM,7/1/13,-38.29661626,10.5999448,-52.8,-9.26,2976
VAAM,8/1/13,-29.29720094,11.21047236,-44.22,-3.47,2976
VAAM,9/1/13,-24.4104481,9.517192415,-44.79,-3.21,2678
VAAM,10/1/13,-19.05772849,7.504850901,-37.29,-2.43,2976
VAAM,11/1/13,-6.827993056,5.785683532,-22.43,6.36,2880
VAAM,12/1/13,0.390635081,2.045657298,-4.38,6.01,2976
VAAM,1/1/14,1.167432796,2.890482231,-6.85,8.75,2976
VAAM,2/1/14,-6.385907738,4.494672022,-19.03,3.13,2688
VAAM,3/1/14,-20.03011089,7.919280819,-39.02,-7.11,2976
VAAM,4/1/14,-24.68296181,9.22501911,-38.83,-1.13,2880
VAAM,5/1/14,-25.2762836,12.65644705,-43.24,-2.22,2976
VAAM,6/1/14,-30.66288194,10.41200174,-44.99,-5.87,2880
VAAM,7/1/14,-40.5221539,12.13199055,-52.36,-4.47,2976
VAAM,8/1/14,-23.78203629,10.84727817,-45.56,-1.89,2976
VAAM,9/1/14,-21.46581597,9.002717148,-37.29,-2.39,2880
VAAM,10/1/14,-14.00338038,6.439590289,-30.11,-0.39,2976
VAAM,11/1/14,-7.511354167,3.629152338,-18.32,-0.13,2880
VAAM,12/1/14,-1.851623529,2.75563912,-9.5,4.56,2975
VAAM,1/1/15,-0.116045027,2.549510729,-6.5,7.27,2976
VAAM,2/1/15,-4.073385417,3.865452115,-14.96,4.03,2688
VAAM,3/1/15,-23.23681452,8.802981504,-38.01,-6.65,2976
VAAM,4/1/15,-31.02853819,9.538564411,-47.48,-4.58,2880
VAAM,5/1/15,-36.23942204,8.229469338,-48.24,-13.82,2976
VAAM,6/1/15,-33.03436458,10.72571671,-48.03,-7.83,2880
VAAM,7/1/15,-32.13262097,10.45736616,-48.64,-7.64,2976
VAAM,8/1/15,-30.31411626,11.54037681,-47.12,-8.89,2976
VAAM,9/1/15,-30.08876042,9.400406639,-49.37,-10.28,2880
VAAM,10/1/15,-14.02632917,6.120396529,-29.5,-4.27,2242
VAAM,12/1/15,0.555332419,2.358517837,-4.42,6.99,2918
VAAM,1/1/16,0.185701625,2.417475301,-5.37,5.87,1354
VAAM,2/1/16,-8.035915981,4.465459641,-19.27,-0.5,2309
VAAM,3/1/16,-21.82929772,5.849064527,-32.98,-7.42,2976
VAAM,4/1/16,-40.178,4.933801793,-45.02,-26.08,1185
VAAM,5/1/16,-27.94042024,11.42697371,-41.22,-3.65,2213
VAAM,6/1/16,-33.78855556,8.645219826,-47.48,-10.56,2880
VAAM,7/1/16,-40.28184594,10.14145494,-51.13,-11.73,2817
VAAM,8/1/16,-33.83535848,12.69191937,-48.17,-3.2,2943
VAAM,9/1/16,-33.10798958,9.607241492,-48.95,-11.98,2880
VAAM,10/1/16,-19.74927083,5.584786908,-33.8,-5.5,2976
VAAM,11/1/16,-4.872361111,4.247505119,-19.09,4,2880
VAAM,12/1/16,0.712089653,2.68688496,-9.25,7.11,2967
VAAM,1/1/17,0.655702285,2.300549582,-6.58,6.15,2976
VAAM,2/1/17,-5.249929315,4.655225959,-17.8,5.39,2688
VAAM,3/1/17,-19.69662634,7.370862365,-36.74,-4.3,2976
VAAM,4/1/17,-31.58005903,7.447559211,-41.43,-10.49,2880
VAAM,5/1/17,-23.97883737,10.92133658,-40,-0.48,2976
VAAM,6/1/17,-31.14373264,10.31299912,-46.83,-5.93,2880
VAAM,7/1/17,-31.121875,9.510928902,-46.26,-10.14,2976
VAAM,8/1/17,-29.76156586,13.4167023,-48.56,-6.83,2976
VAAM,9/1/17,-32.71656597,9.654386207,-44.88,-8.5,2880
VAAM,10/1/17,-15.41277218,7.24765315,-40.4,-2.06,2976
VAAM,11/1/17,-7.088076389,4.961276788,-18.5,3.49,2880
VAAM,12/1/17,-1.563958826,2.412038781,-8.38,5.1,2963
VAAM,1/1/18,0.392620968,2.771372718,-6.09,6.45,2976
VAAM,2/1/18,-7.433125,4.43830341,-20,0.47,2688
VAAM,3/1/18,-17.5841129,7.165696881,-31.58,-1.78,2976
VAAM,4/1/18,-24.84103125,9.937186468,-41.74,-3.03,2880
VAAM,5/1/18,-33.32597446,10.86562276,-45.57,-3.58,2976
VAAM,6/1/18,-25.49168403,8.932079941,-46,-6.47,2880
VAAM,7/1/18,-29.58255712,14.01662694,-50.33,-8.58,2976
VAAM,8/1/18,-33.185625,13.4411702,-48.47,-3.89,2976
VAAM,9/1/18,-26.60839236,9.193825186,-43.7,-7.5,2880
VAAM,10/1/18,-12.74018481,7.307603191,-30.48,2.72,2976
VAAM,11/1/18,-4.879920139,4.179569492,-14.98,5.1,2880
VAAM,12/1/18,1.253257392,3.033072176,-5.91,9.19,2063